When you browse on this site, cookies collect data to enhance your experience and personalize the content and advertising you see.
Visit our Privacy Policy to learn more. By continuing to use the site, you agree to this use of cookies and data.
  • In Hungary
  • List of Countries
  • For 7 days
  • Water Temperature
  • Weather Map
  • News
  • Weather Widgets
  • user-avatar
    Login

    Hourly Weather Zanogi

    Today, 24 February, Monday

    Time Temperature Precipitation Wind Pressure Humidity
    00:00 0°C° 0 mm 4 mps 729 mmHg 83%
    01:00 0°C° 0 mm 4 mps 730 mmHg 84%
    02:00 0°C° 0 mm 4 mps 730 mmHg 85%
    03:00 +1°C° 0 mm 3 mps 730 mmHg 86%
    04:00 +1°C° 0 mm 3 mps 730 mmHg 88%
    05:00 0°C° 0 mm 3 mps 730 mmHg 89%
    06:00 0°C° 0 mm 3 mps 731 mmHg 88%
    07:00 -1°C° 0 mm 4 mps 732 mmHg 87%
    08:00 -2°C° 0 mm 4 mps 732 mmHg 87%
    09:00 -1°C° 0 mm 4 mps 733 mmHg 80%
    10:00 -1°C° 0 mm 5 mps 734 mmHg 74%
    11:00 -1°C° 0 mm 6 mps 734 mmHg 67%
    12:00 -1°C° 0 mm 6 mps 735 mmHg 63%
    13:00 -1°C° 0 mm 6 mps 736 mmHg 59%
    14:00 +1°C° 0 mm 6 mps 736 mmHg 55%
    15:00 -1°C° 0 mm 6 mps 737 mmHg 57%
    16:00 0°C° 0 mm 5 mps 737 mmHg 60%
    17:00 -1°C° 0 mm 5 mps 738 mmHg 62%
    18:00 -1°C° 0 mm 5 mps 738 mmHg 66%
    19:00 -2°C° 0 mm 5 mps 738 mmHg 69%
    20:00 -2°C° 0 mm 4 mps 739 mmHg 73%
    21:00 -2°C° 0 mm 4 mps 739 mmHg 73%
    22:00 -2°C° 0 mm 4 mps 739 mmHg 74%
    23:00 -3°C° 0 mm 4 mps 739 mmHg 74%

    Tomorrow, 25 February, Tuesday

    Time Temperature Precipitation Wind Pressure Humidity
    00:00 -2°C° 0 mm 3 mps 740 mmHg 75%
    01:00 -2°C° 0 mm 3 mps 740 mmHg 77%
    02:00 -2°C° 0 mm 3 mps 740 mmHg 78%
    03:00 -2°C° 0 mm 2 mps 739 mmHg 80%
    04:00 -2°C° 0 mm 2 mps 739 mmHg 82%
    05:00 -2°C° 0 mm 2 mps 739 mmHg 84%
    06:00 -2°C° 0 mm 2 mps 738 mmHg 83%
    07:00 -2°C° 0 mm 2 mps 738 mmHg 83%
    08:00 0°C° 0 mm 1 mps 738 mmHg 82%
    09:00 -1°C° 0 mm 2 mps 738 mmHg 76%
    10:00 -1°C° 0 mm 2 mps 737 mmHg 69%
    11:00 +1°C° 0 mm 2 mps 737 mmHg 63%
    12:00 +2°C° 0 mm 2 mps 736 mmHg 59%
    13:00 +2°C° 0 mm 2 mps 736 mmHg 56%
    14:00 +2°C° 0 mm 2 mps 735 mmHg 53%
    15:00 +1°C° 0 mm 3 mps 735 mmHg 59%
    16:00 0°C° 0 mm 3 mps 734 mmHg 65%
    17:00 0°C° 0 mm 3 mps 733 mmHg 71%
    18:00 -1°C° 0.1 mm 3 mps 732 mmHg 78%
    19:00 -2°C° 0.1 mm 4 mps 732 mmHg 84%
    20:00 -2°C° 0.1 mm 4 mps 731 mmHg 90%
    21:00 -2°C° 0.7 mm 4 mps 730 mmHg 92%
    22:00 -2°C° 0.7 mm 4 mps 729 mmHg 95%
    23:00 -1°C° 0.7 mm 3 mps 728 mmHg 97%

    Day after tomorrow, 26 February, Wednesday

    Time Temperature Precipitation Wind Pressure Humidity
    00:00 -1°C° 0.3 mm 3 mps 728 mmHg 95%
    01:00 -1°C° 0.3 mm 4 mps 728 mmHg 94%
    02:00 -1°C° 0.3 mm 4 mps 728 mmHg 92%
    03:00 -1°C° 0 mm 4 mps 727 mmHg 92%
    04:00 0°C° 0 mm 3 mps 727 mmHg 92%
    05:00 -1°C° 0 mm 3 mps 727 mmHg 92%
    06:00 0°C° 0.1 mm 3 mps 727 mmHg 90%
    07:00 0°C° 0.1 mm 3 mps 727 mmHg 88%
    08:00 -1°C° 0.1 mm 4 mps 727 mmHg 86%
    09:00 -1°C° 0 mm 4 mps 727 mmHg 85%
    10:00 -1°C° 0 mm 4 mps 727 mmHg 85%
    11:00 -1°C° 0 mm 4 mps 727 mmHg 84%
    12:00 -1°C° 0.3 mm 5 mps 727 mmHg 88%
    13:00 -1°C° 0.3 mm 5 mps 727 mmHg 91%
    14:00 -1°C° 0.3 mm 5 mps 728 mmHg 95%
    15:00 -1°C° 0.1 mm 5 mps 728 mmHg 89%
    16:00 -1°C° 0.1 mm 4 mps 728 mmHg 83%
    17:00 0°C° 0.1 mm 4 mps 728 mmHg 77%
    18:00 -1°C° 0 mm 4 mps 728 mmHg 78%
    19:00 -1°C° 0 mm 4 mps 728 mmHg 79%
    20:00 -1°C° 0 mm 3 mps 729 mmHg 81%
    21:00 -1°C° 0 mm 3 mps 729 mmHg 82%
    22:00 -1°C° 0 mm 3 mps 728 mmHg 83%
    23:00 -1°C° 0 mm 3 mps 728 mmHg 85%

    27 February, Thursday

    Time Temperature Precipitation Wind Pressure Humidity
    00:00 -2°C° 0.1 mm 4 mps 728 mmHg 87%
    01:00 -2°C° 0.1 mm 4 mps 729 mmHg 89%
    02:00 -2°C° 0.1 mm 4 mps 729 mmHg 91%
    03:00 -2°C° 0.2 mm 4 mps 729 mmHg 91%
    04:00 -2°C° 0.2 mm 4 mps 729 mmHg 91%
    05:00 -2°C° 0.2 mm 4 mps 729 mmHg 91%
    06:00 -1°C° 0.1 mm 3 mps 729 mmHg 92%
    07:00 -1°C° 0.1 mm 3 mps 730 mmHg 93%
    08:00 -2°C° 0.1 mm 2 mps 730 mmHg 93%
    09:00 -1°C° 0.1 mm 2 mps 730 mmHg 91%
    10:00 -1°C° 0.1 mm 2 mps 731 mmHg 88%
    11:00 -1°C° 0.1 mm 2 mps 731 mmHg 85%
    12:00 -1°C° 0.1 mm 2 mps 731 mmHg 87%
    13:00 -1°C° 0.1 mm 2 mps 731 mmHg 88%
    14:00 -1°C° 0.1 mm 3 mps 731 mmHg 89%
    15:00 -2°C° 0.3 mm 3 mps 732 mmHg 91%
    16:00 -2°C° 0.3 mm 3 mps 732 mmHg 92%
    17:00 -4°C° 0.3 mm 4 mps 732 mmHg 94%
    18:00 -4°C° 0.4 mm 4 mps 732 mmHg 93%
    19:00 -5°C° 0.4 mm 4 mps 733 mmHg 93%
    20:00 -6°C° 0.4 mm 5 mps 733 mmHg 93%
    21:00 -6°C° 0.3 mm 5 mps 733 mmHg 93%
    22:00 -7°C° 0.3 mm 5 mps 733 mmHg 93%
    23:00 -7°C° 0.3 mm 5 mps 733 mmHg 93%

    28 February, Friday

    Time Temperature Precipitation Wind Pressure Humidity
    00:00 -7°C° 0.5 mm 5 mps 733 mmHg 93%
    01:00 -7°C° 0.5 mm 5 mps 733 mmHg 93%
    02:00 -7°C° 0.5 mm 5 mps 733 mmHg 93%
    03:00 -7°C° 0.5 mm 5 mps 733 mmHg 93%
    04:00 -7°C° 0.5 mm 5 mps 733 mmHg 93%
    05:00 -7°C° 0.5 mm 5 mps 733 mmHg 93%
    06:00 -7°C° 0.5 mm 5 mps 733 mmHg 92%
    07:00 -7°C° 0.5 mm 5 mps 733 mmHg 92%
    08:00 -7°C° 0.5 mm 5 mps 733 mmHg 92%
    09:00 -7°C° 0.1 mm 5 mps 733 mmHg 89%
    10:00 -6°C° 0.1 mm 5 mps 732 mmHg 87%
    11:00 -6°C° 0.1 mm 5 mps 732 mmHg 84%
    12:00 -6°C° 0 mm 5 mps 732 mmHg 83%
    13:00 -6°C° 0 mm 5 mps 732 mmHg 81%
    14:00 -5°C° 0 mm 5 mps 732 mmHg 79%
    15:00 -6°C° 0 mm 5 mps 732 mmHg 80%
    16:00 -5°C° 0 mm 4 mps 732 mmHg 81%
    17:00 -5°C° 0 mm 4 mps 732 mmHg 82%
    18:00 -5°C° 0.1 mm 4 mps 732 mmHg 84%
    19:00 -7°C° 0.1 mm 4 mps 733 mmHg 86%
    20:00 -7°C° 0.1 mm 4 mps 733 mmHg 88%
    21:00 -7°C° 0.1 mm 4 mps 733 mmHg 90%
    22:00 -6°C° 0.1 mm 3 mps 733 mmHg 91%
    23:00 -6°C° 0.1 mm 3 mps 733 mmHg 93%

    29 February, Saturday

    Time Temperature Precipitation Wind Pressure Humidity
    00:00 -7°C° 0 mm 3 mps 733 mmHg 93%
    01:00 -7°C° 0 mm 3 mps 733 mmHg 93%
    02:00 -6°C° 0 mm 2 mps 734 mmHg 94%
    03:00 -7°C° 0 mm 2 mps 734 mmHg 94%
    04:00 -8°C° 0 mm 2 mps 734 mmHg 95%
    05:00 -8°C° 0 mm 2 mps 734 mmHg 95%
    06:00 -8°C° 0 mm 2 mps 734 mmHg 94%
    07:00 -8°C° 0 mm 2 mps 734 mmHg 93%
    08:00 -9°C° 0 mm 2 mps 734 mmHg 93%
    09:00 -8°C° 0 mm 2 mps 735 mmHg 88%
    10:00 -6°C° 0 mm 2 mps 735 mmHg 84%
    11:00 -5°C° 0 mm 2 mps 735 mmHg 80%
    12:00 -5°C° 0 mm 2 mps 735 mmHg 78%
    13:00 -4°C° 0 mm 2 mps 735 mmHg 76%
    14:00 -4°C° 0 mm 2 mps 735 mmHg 74%
    15:00 -2°C° 0 mm 1 mps 735 mmHg 75%
    16:00 -3°C° 0 mm 1 mps 735 mmHg 76%
    17:00 -3°C° 0 mm 1 mps 735 mmHg 77%
    18:00 -3°C° 0 mm 1 mps 735 mmHg 79%
    19:00 -3°C° 0 mm 1 mps 735 mmHg 80%
    20:00 -5°C° 0 mm 0 mps 735 mmHg 81%
    21:00 -4°C° 0 mm 1 mps 735 mmHg 82%
    22:00 -4°C° 0 mm 1 mps 735 mmHg 83%
    23:00 -6°C° 0 mm 1 mps 735 mmHg 84%
    Show more